SUPERBIRD 8 (43271 NORAD) Tracking and Keplerian Element Data

This shows tracking and keplerian element data for the satellite.

Feedback or suggestion? Click here.




ElementValue
Catalog43271
NameSUPERBIRD 8
Epoch Orbit591
Epoch Day316.86493285
Epoch Year2019
RAAN238.7025
Inclination0.0108
Eccentricity0.0001458
Argument of Perigee27.5837
Mean Anonmoly258.8176
Mean Motion1.00271604
Decay Rate-7.8E-07
L11 43271U 18033A 19316.86493285 -.00000078 00000-0 00000-0 0 9993
L22 43271 0.0108 238.7025 0001458 27.5837 258.8176 1.00271604 5918

Live tracking and technical data element details for SUPERBIRD 8 (NORAD 43271). SUPERBIRD 8 can be tracked NOW for your location showing map with azimuth and elevation plus other details from your city location.

Track the satellite on the map from your city or location and see movement details for azimuth, elevation, latitude, longitude, range, height, and movement on the map or in text.







IsCatalogInMostPopularTable: catalog: 43271, numindb: 880
Update: records affected: 1



GetName: 43271 SUPERBIRD 8

Hit Count: updated at: Wed, 13 Nov 2019 16:57:56 GMT